Morgantown, WV

9:42 AM EDT on July 24, 2016 (GMT -0400)
Morgantown Municipal-Hart

Weather History for KMGW - December, 2009

Change the Weather History Date:

Saturday, December 26, 2009

  Actual Average Record
Temperature  
Mean Temperature 40 °F 32 °F  
Max Temperature 48 °F 40 °F 64 °F (1982)
Min Temperature 31 °F 25 °F -5 °F (1983)
Degree Days  
Heating Degree Days 25 33  
Month to date heating degree days 775 772  
Since 1 July heating degree days 1587 1820  
Cooling Degree Days 0 0  
Month to date cooling degree days 0 0  
Year to date cooling degree days 844 814  
Moisture  
Dew Point 34 °F    
Average Humidity 76    
Maximum Humidity 92    
Minimum Humidity 59    
Precipitation  
Precipitation 0.03 in 0.09 in 0.87 in (1957)
Month to date precipitation 2.20 2.49  
Year to date precipitation 37.84 41.41  
Sea Level Pressure  
Sea Level Pressure 29.96 in    
Wind  
Wind Speed 4 mph (SW)    
Max Wind Speed 16 mph    
Max Gust Speed 24 mph    
Visibility 8 miles    
Events Rain    
T = Trace of Precipitation, MM = Missing Value Source: NWS Daily Summary

Daily Weather History Graph

Daily Weather History Graph

Search for Another Location

Airport or City:

Trip Planner

Search our weather history database for the weather conditions in past years. The results will help you decide how hot, cold, wet, or windy it might be!

Date:

Astronomy

Dec. 26, 2009 Rise Set
Actual Time 7:39 AM EST 5:01 PM EST
Civil Twilight 7:08 AM EST 5:32 PM EST
Nautical Twilight 6:34 AM EST 6:06 PM EST
Astronomical Twilight 6:02 AM EST 6:38 PM EST
Moon 12:42 PM EST (12/26) 2:02 AM EST (12/26)
Length of Visible Light 10h 23m
Length of Day
9h 22m
Waxing Gibbous, 70% of the Moon is Illuminated
Dec 26
Waxing Gibbous
Dec 31
Full
Jan 7
Last Quarter
Jan 15
New
Jan 23
First Quarter

Hourly Weather History & Observations

Time (EST) Temp. Windchill Dew Point Humidity Pressure Visibility Wind Dir Wind Speed Gust Speed Precip Events Conditions
12:53 AM 46.0 °F 40.6 °F 37.0 °F 71% 29.84 in 10.0 mi ESE 11.5 mph 18.4 mph N/A   Overcast
1:53 AM 46.9 °F - 37.9 °F 71% 29.86 in 10.0 mi SE 12.7 mph 20.7 mph N/A   Overcast
2:53 AM 48.0 °F - 37.9 °F 68% 29.90 in 10.0 mi Variable 4.6 mph - N/A   Overcast
3:32 AM 46.4 °F 45.2 °F 37.4 °F 71% 29.89 in 10.0 mi South 3.5 mph - N/A   Overcast
3:53 AM 46.0 °F 44.8 °F 37.9 °F 73% 29.91 in 10.0 mi South 3.5 mph - N/A   Overcast
4:53 AM 43.0 °F 41.3 °F 37.9 °F 82% 29.93 in 7.0 mi WNW 3.5 mph - 0.00 in Rain Light Rain
5:18 AM 42.8 °F - 37.4 °F 81% 29.93 in 5.0 mi Calm Calm - 0.00 in   Overcast
5:42 AM 42.8 °F - 39.2 °F 87% 29.94 in 4.0 mi Calm Calm - 0.01 in   Overcast
5:53 AM 41.0 °F - 37.9 °F 89% 29.96 in 3.0 mi Calm Calm - 0.01 in Rain Light Rain
6:00 AM 42.8 °F - 39.2 °F 87% 29.94 in 2.0 mi Calm Calm - 0.01 in Rain Light Rain
6:19 AM 42.8 °F - 37.4 °F 81% 29.95 in 4.0 mi Calm Calm - 0.01 in   Overcast
6:36 AM 41.0 °F 39.0 °F 37.4 °F 87% 29.96 in 4.0 mi SSW 3.5 mph - 0.02 in   Overcast
6:53 AM 41.0 °F 38.0 °F 37.9 °F 89% 29.98 in 4.0 mi WSW 4.6 mph - 0.02 in   Overcast
7:08 AM 41.0 °F 36.4 °F 37.4 °F 87% 29.96 in 4.0 mi West 6.9 mph - N/A   Overcast
7:40 AM 39.2 °F 35.9 °F 37.4 °F 93% 29.98 in 5.0 mi West 4.6 mph - N/A   Overcast
7:53 AM 39.9 °F 35.8 °F 37.0 °F 89% 30.00 in 6.0 mi West 5.8 mph - N/A   Overcast
8:18 AM 39.2 °F 35.9 °F 35.6 °F 87% 30.00 in 3.0 mi SW 4.6 mph - N/A   Overcast
8:25 AM 39.2 °F 35.9 °F 35.6 °F 87% 30.00 in 4.0 mi SW 4.6 mph - N/A   Overcast
8:53 AM 39.0 °F - 37.0 °F 93% 30.02 in 5.0 mi Calm Calm - N/A   Overcast
9:53 AM 39.0 °F 36.8 °F 35.1 °F 86% 30.04 in 10.0 mi WSW 3.5 mph - N/A   Overcast
10:53 AM 39.0 °F 35.7 °F 32.0 °F 76% 30.03 in 10.0 mi Variable 4.6 mph - N/A   Overcast
11:53 AM 39.0 °F 34.0 °F 27.0 °F 62% 30.01 in 10.0 mi SSW 6.9 mph - N/A   Overcast
12:53 PM 39.0 °F 34.8 °F 28.0 °F 65% 29.99 in 10.0 mi South 5.8 mph - N/A   Overcast
1:53 PM 39.9 °F 34.5 °F 28.9 °F 65% 29.96 in 10.0 mi SSW 8.1 mph - N/A   Overcast
2:22 PM 39.2 °F 35.9 °F 28.4 °F 65% 29.94 in 10.0 mi SW 4.6 mph - N/A   Scattered Clouds
2:53 PM 41.0 °F 37.1 °F 28.9 °F 62% 29.96 in 10.0 mi Variable 5.8 mph - N/A   Partly Cloudy
3:53 PM 41.0 °F - 28.9 °F 62% 29.96 in 10.0 mi Calm Calm - N/A   Clear
4:53 PM 41.0 °F - 30.0 °F 65% 29.96 in 10.0 mi Calm Calm - N/A   Clear
5:53 PM 37.9 °F - 28.0 °F 68% 29.97 in 10.0 mi Calm Calm - N/A   Clear
6:53 PM 36.0 °F - 28.9 °F 76% 29.97 in 10.0 mi Calm Calm - N/A   Clear
7:53 PM 36.0 °F 33.3 °F 28.9 °F 76% 29.96 in 10.0 mi SSE 3.5 mph - N/A   Clear
8:53 PM 36.0 °F - 28.9 °F 76% 29.96 in 10.0 mi Calm Calm - N/A   Clear
9:53 PM 34.0 °F - 28.0 °F 79% 29.97 in 10.0 mi Calm Calm - N/A   Clear
10:53 PM 30.9 °F - 28.0 °F 89% 29.99 in 10.0 mi Calm Calm - N/A   Clear
11:53 PM 36.0 °F 32.1 °F 24.1 °F 62% 29.99 in 10.0 mi SSW 4.6 mph - N/A   Clear